START_TIME,STEP,MOV.,P11,t_acc.,P23,t_acc.,P27,t_acc.,A4,t_acc.
1979-07-21 12:00:22.800 ,0,0,0.,4.8,0.,4.8,0.,4.8,0.,4.8
1979-07-21 12:00:27.600 ,0,0,1.,4.8,0.,4.8,1.,4.8,1.,4.8
1979-07-21 12:00:32.400 ,0,0,0.,4.8,0.,4.8,0.,4.8,0.,4.8
1979-07-21 12:00:37.200 ,0,0,1.,4.8,0.,4.8,0.,4.8,0.,4.8
1979-07-21 12:00:42.000 ,0,0,1.,4.8,0.,4.8,0.,4.8,0.,4.8
1979-07-21 12:00:46.800 ,1,0,1.,4.8,0.,4.8,0.,4.8,1.,4.8
1979-07-21 12:00:51.600 ,1,0,0.,4.8,0.,4.8,0.,4.8,0.,4.8
1979-07-21 12:00:56.400 ,1,0,0.,4.8,0.,4.8,0.,4.8,0.,4.8
1979-07-21 12:01:01.200 ,1,0,1.,4.8,0.,4.8,0.,4.8,0.,4.8
1979-07-21 12:01:06.000 ,1,0,0.,4.8,0.,4.8,0.,4.8,0.,4.8
1979-07-21 12:01:10.800 ,1,0,0.,4.8,0.,4.8,0.,4.8,0.,4.8
1979-07-21 12:01:15.600 ,1,0,0.,4.8,0.,4.8,0.,4.8,0.,4.8
1979-07-21 12:01:20.400 ,1,0,0.,4.8,1.,4.8,0.,4.8,0.,4.8
1979-07-21 12:01:25.200 ,1,0,1.,4.8,0.,4.8,0.,4.8,0.,4.8
1979-07-21 12:01:30.000 ,1,0,0.,4.8,0.,4.8,0.,4.8,0.,4.8
1979-07-21 12:01:34.800 ,2,0,0.,4.8,0.,4.8,0.,4.8,0.,4.8
1979-07-21 12:01:39.600 ,2,0,0.,4.8,0.,4.8,0.,4.8,0.,4.8
1979-07-21 12:01:44.400 ,2,0,0.,4.8,0.,4.8,0.,4.8,0.,4.8
1979-07-21 12:01:49.200 ,2,0,0.,4.8,0.,4.8,0.,4.8,0.,4.8
1979-07-21 12:01:54.000 ,2,0,1.,4.8,0.,4.8,1.,4.8,0.,4.8
1979-07-21 12:01:58.800 ,2,0,0.,4.8,0.,4.8,0.,4.8,1.,4.8
1979-07-21 12:02:03.600 ,2,0,0.,4.8,0.,4.8,0.,4.8,0.,4.8
1979-07-21 12:02:08.400 ,2,0,1.,4.8,0.,4.8,0.,4.8,0.,4.8
1979-07-21 12:02:13.200 ,2,0,0.,4.8,0.,4.8,0.,4.8,0.,4.8
1979-07-21 12:02:18.000 ,2,0,0.,4.8,0.,4.8,0.,4.8,0.,4.8
1979-07-21 12:02:22.800 ,3,0,0.,4.8,0.,4.8,0.,4.8,0.,4.8
1979-07-21 12:02:27.600 ,3,0,0.,4.8,0.,4.8,0.,4.8,0.,4.8
1979-07-21 12:02:32.400 ,3,0,0.,4.8,0.,4.8,0.,4.8,0.,4.8
1979-07-21 12:02:37.200 ,3,0,0.,4.8,0.,4.8,0.,4.8,0.,4.8
1979-07-21 12:02:42.000 ,3,0,0.,4.8,0.,4.8,1.,4.8,0.,4.8
1979-07-21 12:02:46.800 ,3,0,0.,4.8,0.,4.8,0.,4.8,2.,4.8
1979-07-21 12:02:51.600 ,3,0,0.,4.8,0.,4.8,0.,4.8,0.,4.8
1979-07-21 12:02:56.400 ,3,0,0.,4.8,0.,4.8,0.,4.8,0.,4.8
1979-07-21 12:03:01.200 ,3,0,0.,4.8,0.,4.8,0.,4.8,0.,4.8
1979-07-21 12:03:06.000 ,3,0,0.,4.8,0.,4.8,0.,4.8,0.,4.8
1979-07-21 12:03:10.800 ,4,0,0.,4.8,0.,4.8,0.,4.8,0.,4.8
1979-07-21 12:03:15.600 ,4,0,0.,4.8,0.,4.8,0.,4.8,0.,4.8
1979-07-21 12:03:20.400 ,4,0,0.,4.8,0.,4.8,0.,4.8,0.,4.8
1979-07-21 12:03:25.200 ,4,0,0.,4.8,0.,4.8,0.,4.8,0.,4.8
1979-07-21 12:03:30.000 ,4,0,0.,4.8,0.,4.8,0.,4.8,0.,4.8
1979-07-21 12:03:34.800 ,4,0,0.,4.8,0.,4.8,0.,4.8,0.,4.8
1979-07-21 12:03:39.600 ,4,0,0.,4.8,0.,4.8,0.,4.8,1.,4.8
1979-07-21 12:03:44.400 ,4,0,0.,4.8,0.,4.8,0.,4.8,0.,4.8
1979-07-21 12:03:49.200 ,4,0,0.,4.8,0.,4.8,0.,4.8,0.,4.8
1979-07-21 12:03:54.000 ,4,0,0.,4.8,0.,4.8,0.,4.8,0.,4.8
1979-07-21 12:03:58.800 ,5,0,1.,4.8,0.,4.8,0.,4.8,0.,4.8
1979-07-21 12:04:03.600 ,5,0,0.,4.8,0.,4.8,0.,4.8,0.,4.8
1979-07-21 12:04:08.400 ,5,0,1.,4.8,0.,4.8,0.,4.8,0.,4.8
1979-07-21 12:04:13.200 ,5,0,0.,4.8,0.,4.8,1.,4.8,0.,4.8
1979-07-21 12:04:18.000 ,5,0,2.,4.8,0.,4.8,0.,4.8,0.,4.8
1979-07-21 12:04:22.800 ,5,0,0.,4.8,0.,4.8,0.,4.8,0.,4.8
1979-07-21 12:04:27.600 ,5,0,0.,4.8,0.,4.8,0.,4.8,0.,4.8
1979-07-21 12:04:32.400 ,5,0,0.,4.8,0.,4.8,1.,4.8,0.,4.8
1979-07-21 12:04:37.200 ,5,0,1.,4.8,0.,4.8,0.,4.8,0.,4.8
1979-07-21 12:04:42.000 ,5,0,0.,4.8,0.,4.8,1.,4.8,0.,4.8
1979-07-21 12:04:46.800 ,6,0,0.,4.8,0.,4.8,0.,4.8,0.,4.8
1979-07-21 12:04:51.600 ,6,0,1.,4.8,0.,4.8,0.,4.8,0.,4.8
1979-07-21 12:04:56.400 ,6,0,0.,4.8,0.,4.8,0.,4.8,0.,4.8
1979-07-21 12:05:01.200 ,6,0,0.,4.8,0.,4.8,0.,4.8,0.,4.8
1979-07-21 12:05:06.000 ,6,0,1.,4.8,0.,4.8,0.,4.8,0.,4.8
1979-07-21 12:05:10.800 ,6,0,0.,4.8,0.,4.8,0.,4.8,0.,4.8
1979-07-21 12:05:15.600 ,6,0,0.,4.8,0.,4.8,0.,4.8,0.,4.8
1979-07-21 12:05:20.400 ,6,0,0.,4.8,0.,4.8,0.,4.8,0.,4.8
1979-07-21 12:05:25.200 ,6,0,0.,4.8,0.,4.8,0.,4.8,1.,4.8
1979-07-21 12:05:30.000 ,6,0,0.,4.8,0.,4.8,0.,4.8,0.,4.8
1979-07-21 12:05:34.800 ,7,0,0.,4.8,0.,4.8,0.,4.8,0.,4.8
1979-07-21 12:05:39.600 ,7,0,0.,4.8,0.,4.8,0.,4.8,0.,4.8
1979-07-21 12:05:44.400 ,7,0,1.,4.8,0.,4.8,0.,4.8,0.,4.8
1979-07-21 12:05:49.200 ,7,0,0.,4.8,0.,4.8,0.,4.8,0.,4.8
1979-07-21 12:05:54.000 ,7,0,0.,4.8,0.,4.8,0.,4.8,0.,4.8
1979-07-21 12:05:58.800 ,7,0,0.,4.8,0.,4.8,0.,4.8,0.,4.8
1979-07-21 12:06:03.600 ,7,0,0.,4.8,0.,4.8,0.,4.8,0.,4.8
1979-07-21 12:06:08.400 ,7,0,1.,4.8,0.,4.8,0.,4.8,0.,4.8
1979-07-21 12:06:13.200 ,7,0,0.,4.8,0.,4.8,0.,4.8,0.,4.8
1979-07-21 12:06:18.000 ,7,0,0.,4.8,0.,4.8,0.,4.8,0.,4.8
1979-07-21 12:06:22.800 ,7,0,0.,4.8,0.,4.8,0.,4.8,0.,4.8
1979-07-21 12:06:27.600 ,7,0,0.,4.8,0.,4.8,1.,4.8,0.,4.8
1979-07-21 12:06:32.400 ,7,0,0.,4.8,0.,4.8,0.,4.8,0.,4.8
1979-07-21 12:06:37.200 ,7,0,1.,4.8,0.,4.8,0.,4.8,0.,4.8
1979-07-21 12:06:42.000 ,7,0,0.,4.8,0.,4.8,0.,4.8,0.,4.8
1979-07-21 12:06:46.800 ,7,0,1.,4.8,0.,4.8,1.,4.8,0.,4.8
1979-07-21 12:06:51.600 ,7,0,0.,4.8,0.,4.8,0.,4.8,0.,4.8
1979-07-21 12:06:56.400 ,7,0,0.,4.8,0.,4.8,0.,4.8,0.,4.8
1979-07-21 12:07:01.200 ,7,0,0.,4.8,0.,4.8,0.,4.8,0.,4.8
1979-07-21 12:07:06.000 ,7,0,0.,4.8,0.,4.8,0.,4.8,0.,4.8
1979-07-21 12:07:10.800 ,6,0,0.,4.8,1.,4.8,0.,4.8,0.,4.8
1979-07-21 12:07:15.600 ,6,0,0.,4.8,0.,4.8,0.,4.8,0.,4.8
1979-07-21 12:07:20.400 ,6,0,0.,4.8,0.,4.8,0.,4.8,0.,4.8
1979-07-21 12:07:25.200 ,6,0,0.,4.8,0.,4.8,0.,4.8,0.,4.8
1979-07-21 12:07:30.000 ,6,0,0.,4.8,0.,4.8,0.,4.8,0.,4.8
1979-07-21 12:07:34.800 ,6,0,0.,4.8,0.,4.8,0.,4.8,0.,4.8
1979-07-21 12:07:39.600 ,6,0,0.,4.8,0.,4.8,0.,4.8,0.,4.8
1979-07-21 12:07:44.400 ,6,0,0.,4.8,0.,4.8,0.,4.8,0.,4.8
1979-07-21 12:07:49.200 ,6,0,0.,4.8,0.,4.8,0.,4.8,0.,4.8
1979-07-21 12:07:54.000 ,6,0,1.,4.8,0.,4.8,0.,4.8,0.,4.8
1979-07-21 12:07:58.800 ,5,0,1.,4.8,0.,4.8,0.,4.8,0.,4.8
1979-07-21 12:08:03.600 ,5,0,0.,4.8,0.,4.8,0.,4.8,0.,4.8
1979-07-21 12:08:08.400 ,5,0,1.,4.8,0.,4.8,0.,4.8,0.,4.8
1979-07-21 12:08:13.200 ,5,0,2.,4.8,0.,4.8,0.,4.8,0.,4.8
1979-07-21 12:08:18.000 ,5,0,0.,4.8,0.,4.8,0.,4.8,0.,4.8
1979-07-21 12:08:22.800 ,5,0,0.,4.8,0.,4.8,0.,4.8,1.,4.8
1979-07-21 12:08:27.600 ,5,0,1.,4.8,0.,4.8,0.,4.8,0.,4.8
1979-07-21 12:08:32.400 ,5,0,0.,4.8,0.,4.8,0.,4.8,0.,4.8
1979-07-21 12:08:37.200 ,5,0,1.,4.8,0.,4.8,0.,4.8,0.,4.8
1979-07-21 12:08:42.000 ,5,0,0.,4.8,0.,4.8,0.,4.8,0.,4.8
1979-07-21 12:08:46.800 ,4,0,0.,4.8,0.,4.8,0.,4.8,0.,4.8
1979-07-21 12:08:51.600 ,4,0,1.,4.8,0.,4.8,0.,4.8,0.,4.8
1979-07-21 12:08:56.400 ,4,0,0.,4.8,0.,4.8,1.,4.8,0.,4.8
1979-07-21 12:09:01.200 ,4,0,0.,4.8,0.,4.8,0.,4.8,0.,4.8
1979-07-21 12:09:06.000 ,4,0,1.,4.8,0.,4.8,0.,4.8,0.,4.8
1979-07-21 12:09:10.800 ,4,0,0.,4.8,0.,4.8,0.,4.8,0.,4.8
1979-07-21 12:09:15.600 ,4,0,0.,4.8,0.,4.8,0.,4.8,0.,4.8
1979-07-21 12:09:20.400 ,4,0,2.,4.8,0.,4.8,0.,4.8,0.,4.8
1979-07-21 12:09:25.200 ,4,0,1.,4.8,0.,4.8,2.,4.8,0.,4.8
1979-07-21 12:09:30.000 ,4,0,0.,4.8,0.,4.8,0.,4.8,0.,4.8
1979-07-21 12:09:34.800 ,3,0,1.,4.8,0.,4.8,1.,4.8,0.,4.8
1979-07-21 12:09:39.600 ,3,0,1.,4.8,0.,4.8,1.,4.8,0.,4.8
1979-07-21 12:09:44.400 ,3,0,0.,4.8,0.,4.8,0.,4.8,0.,4.8
1979-07-21 12:09:49.200 ,3,0,0.,4.8,0.,4.8,0.,4.8,0.,4.8
1979-07-21 12:09:54.000 ,3,0,0.,4.8,1.,4.8,0.,4.8,0.,4.8
1979-07-21 12:09:58.800 ,3,0,0.,4.8,0.,4.8,0.,4.8,0.,4.8
1979-07-21 12:10:03.600 ,3,0,0.,4.8,0.,4.8,0.,4.8,0.,4.8
1979-07-21 12:10:08.400 ,3,0,1.,4.8,1.,4.8,0.,4.8,1.,4.8
1979-07-21 12:10:13.200 ,3,0,2.,4.8,0.,4.8,0.,4.8,0.,4.8
1979-07-21 12:10:18.000 ,3,0,0.,4.8,0.,4.8,0.,4.8,0.,4.8
1979-07-21 12:10:22.800 ,2,0,0.,4.8,0.,4.8,0.,4.8,0.,4.8
1979-07-21 12:10:27.600 ,2,0,0.,4.8,0.,4.8,0.,4.8,0.,4.8
1979-07-21 12:10:32.400 ,2,0,0.,4.8,0.,4.8,0.,4.8,0.,4.8
1979-07-21 12:10:37.200 ,2,0,0.,4.8,0.,4.8,0.,4.8,0.,4.8
1979-07-21 12:10:42.000 ,2,0,0.,4.8,0.,4.8,0.,4.8,0.,4.8
1979-07-21 12:10:46.800 ,2,0,0.,4.8,0.,4.8,0.,4.8,0.,4.8
1979-07-21 12:10:51.600 ,2,0,0.,4.8,0.,4.8,0.,4.8,0.,4.8
1979-07-21 12:10:56.400 ,2,0,0.,4.8,0.,4.8,0.,4.8,0.,4.8
1979-07-21 12:11:01.200 ,2,0,0.,4.8,0.,4.8,0.,4.8,0.,4.8
1979-07-21 12:11:06.000 ,2,0,0.,4.8,0.,4.8,1.,4.8,0.,4.8
1979-07-21 12:11:10.800 ,1,0,0.,4.8,0.,4.8,0.,4.8,0.,4.8
1979-07-21 12:11:15.600 ,1,0,1.,4.8,0.,4.8,1.,4.8,1.,4.8
1979-07-21 12:11:20.400 ,1,0,0.,4.8,0.,4.8,0.,4.8,0.,4.8
1979-07-21 12:11:25.200 ,1,0,0.,4.8,0.,4.8,0.,4.8,0.,4.8
1979-07-21 12:11:30.000 ,1,0,0.,4.8,0.,4.8,0.,4.8,0.,4.8
1979-07-21 12:11:34.800 ,1,0,0.,4.8,0.,4.8,0.,4.8,0.,4.8
1979-07-21 12:11:39.600 ,1,0,1.,4.8,0.,4.8,0.,4.8,0.,4.8
1979-07-21 12:11:44.400 ,1,0,1.,4.8,0.,4.8,0.,4.8,0.,4.8
1979-07-21 12:11:49.200 ,1,0,0.,4.8,0.,4.8,0.,4.8,0.,4.8
1979-07-21 12:11:54.000 ,1,0,0.,4.8,0.,4.8,1.,4.8,0.,4.8
1979-07-21 12:11:58.800 ,0,0,1.,4.8,0.,4.8,0.,4.8,0.,4.8
1979-07-21 12:12:03.600 ,0,0,1.,4.8,0.,4.8,1.,4.8,0.,4.8
1979-07-21 12:12:08.400 ,0,0,0.,4.8,0.,4.8,1.,4.8,0.,4.8
1979-07-21 12:12:13.200 ,0,0,0.,4.8,0.,4.8,0.,4.8,0.,4.8
1979-07-21 12:12:18.000 ,0,0,0.,4.8,0.,4.8,0.,4.8,0.,4.8
1979-07-21 12:12:22.800 ,0,0,2.,4.8,0.,4.8,0.,4.8,0.,4.8
1979-07-21 12:12:27.600 ,0,0,0.,4.8,0.,4.8,0.,4.8,0.,4.8
1979-07-21 12:12:32.400 ,0,0,0.,4.8,0.,4.8,0.,4.8,0.,4.8
1979-07-21 12:12:37.200 ,0,0,0.,4.8,0.,4.8,0.,4.8,0.,4.8
1979-07-21 12:12:42.000 ,0,0,0.,4.8,0.,4.8,0.,4.8,0.,4.8
1979-07-21 12:12:46.800 ,0,0,0.,4.8,0.,4.8,2.,4.8,0.,4.8
1979-07-21 12:12:51.600 ,0,0,0.,4.8,0.,4.8,0.,4.8,0.,4.8
1979-07-21 12:12:56.400 ,0,0,0.,4.8,0.,4.8,1.,4.8,1.,4.8
1979-07-21 12:13:01.200 ,0,0,0.,4.8,0.,4.8,0.,4.8,0.,4.8
1979-07-21 12:13:06.000 ,0,0,0.,4.8,1.,4.8,0.,4.8,0.,4.8
1979-07-21 12:13:10.800 ,0,0,0.,4.8,0.,4.8,0.,4.8,0.,4.8
1979-07-21 12:13:15.600 ,0,0,0.,4.8,0.,4.8,0.,4.8,0.,4.8
1979-07-21 12:13:20.400 ,0,0,1.,4.8,0.,4.8,0.,4.8,0.,4.8
1979-07-21 12:13:25.200 ,0,0,1.,4.8,0.,4.8,0.,4.8,0.,4.8
1979-07-21 12:13:30.000 ,0,0,1.,4.8,0.,4.8,0.,4.8,0.,4.8
1979-07-21 12:13:34.800 ,1,0,0.,4.8,0.,4.8,0.,4.8,0.,4.8
1979-07-21 12:13:39.600 ,1,0,0.,4.8,0.,4.8,0.,4.8,0.,4.8
1979-07-21 12:13:44.400 ,1,0,0.,4.8,0.,4.8,0.,4.8,0.,4.8
1979-07-21 12:13:49.200 ,1,0,0.,4.8,0.,4.8,0.,4.8,0.,4.8
1979-07-21 12:13:54.000 ,1,0,0.,4.8,0.,4.8,0.,4.8,0.,4.8
1979-07-21 12:13:58.800 ,1,0,0.,4.8,0.,4.8,0.,4.8,0.,4.8
1979-07-21 12:14:03.600 ,1,0,0.,4.8,0.,4.8,0.,4.8,0.,4.8
1979-07-21 12:14:08.400 ,1,0,0.,4.8,0.,4.8,0.,4.8,0.,4.8
1979-07-21 12:14:13.200 ,1,0,0.,4.8,0.,4.8,0.,4.8,0.,4.8
1979-07-21 12:14:18.000 ,1,0,0.,4.8,0.,4.8,0.,4.8,0.,4.8
1979-07-21 12:14:22.800 ,2,0,0.,4.8,0.,4.8,0.,4.8,0.,4.8
1979-07-21 12:14:27.600 ,2,0,0.,4.8,0.,4.8,0.,4.8,0.,4.8
1979-07-21 12:14:32.400 ,2,0,1.,4.8,0.,4.8,0.,4.8,0.,4.8
1979-07-21 12:14:37.200 ,2,0,0.,4.8,0.,4.8,0.,4.8,0.,4.8
1979-07-21 12:14:42.000 ,2,0,0.,4.8,0.,4.8,0.,4.8,1.,4.8
1979-07-21 12:14:46.800 ,2,0,0.,4.8,0.,4.8,0.,4.8,0.,4.8
1979-07-21 12:14:51.600 ,2,0,1.,4.8,0.,4.8,0.,4.8,0.,4.8
1979-07-21 12:14:56.400 ,2,0,1.,4.8,0.,4.8,0.,4.8,0.,4.8
1979-07-21 12:15:01.200 ,2,0,0.,4.8,0.,4.8,0.,4.8,0.,4.8
1979-07-21 12:15:06.000 ,2,0,0.,4.8,0.,4.8,0.,4.8,0.,4.8
1979-07-21 12:15:10.800 ,3,0,0.,4.8,0.,4.8,0.,4.8,0.,4.8
1979-07-21 12:15:15.600 ,3,0,0.,4.8,0.,4.8,0.,4.8,0.,4.8
1979-07-21 12:15:20.400 ,3,0,0.,4.8,0.,4.8,0.,4.8,0.,4.8
1979-07-21 12:15:25.200 ,3,0,0.,4.8,0.,4.8,1.,4.8,0.,4.8
1979-07-21 12:15:30.000 ,3,0,0.,4.8,0.,4.8,1.,4.8,0.,4.8
1979-07-21 12:15:34.800 ,3,0,1.,4.8,0.,4.8,0.,4.8,0.,4.8
1979-07-21 12:15:39.600 ,3,0,0.,4.8,0.,4.8,1.,4.8,0.,4.8
1979-07-21 12:15:44.400 ,3,0,0.,4.8,0.,4.8,0.,4.8,0.,4.8
1979-07-21 12:15:49.200 ,3,0,0.,4.8,0.,4.8,0.,4.8,0.,4.8
1979-07-21 12:15:54.000 ,3,0,0.,4.8,0.,4.8,1.,4.8,0.,4.8
1979-07-21 12:15:58.800 ,4,0,0.,4.8,0.,4.8,0.,4.8,0.,4.8
1979-07-21 12:16:03.600 ,4,0,0.,4.8,0.,4.8,0.,4.8,0.,4.8
1979-07-21 12:16:08.400 ,4,0,0.,4.8,0.,4.8,0.,4.8,0.,4.8
1979-07-21 12:16:13.200 ,4,0,0.,4.8,0.,4.8,0.,4.8,0.,4.8
1979-07-21 12:16:18.000 ,4,0,0.,4.8,0.,4.8,0.,4.8,0.,4.8
1979-07-21 12:16:22.800 ,4,0,0.,4.8,0.,4.8,0.,4.8,0.,4.8
1979-07-21 12:16:27.600 ,4,0,1.,4.8,0.,4.8,1.,4.8,0.,4.8
1979-07-21 12:16:32.400 ,4,0,0.,4.8,0.,4.8,0.,4.8,0.,4.8
1979-07-21 12:16:37.200 ,4,0,1.,4.8,0.,4.8,0.,4.8,0.,4.8
1979-07-21 12:16:42.000 ,4,0,0.,4.8,0.,4.8,0.,4.8,0.,4.8
1979-07-21 12:16:46.800 ,5,0,0.,4.8,0.,4.8,0.,4.8,0.,4.8
1979-07-21 12:16:51.600 ,5,0,0.,4.8,0.,4.8,0.,4.8,0.,4.8
1979-07-21 12:16:56.400 ,5,0,1.,4.8,0.,4.8,0.,4.8,0.,4.8
1979-07-21 12:17:01.200 ,5,0,0.,4.8,0.,4.8,0.,4.8,0.,4.8
1979-07-21 12:17:06.000 ,5,0,0.,4.8,0.,4.8,0.,4.8,0.,4.8
1979-07-21 12:17:10.800 ,5,0,0.,4.8,0.,4.8,0.,4.8,0.,4.8
1979-07-21 12:17:15.600 ,5,0,0.,4.8,0.,4.8,0.,4.8,0.,4.8
1979-07-21 12:17:20.400 ,5,0,1.,4.8,0.,4.8,0.,4.8,0.,4.8
1979-07-21 12:17:25.200 ,5,0,0.,4.8,0.,4.8,0.,4.8,0.,4.8
1979-07-21 12:17:30.000 ,5,0,0.,4.8,0.,4.8,1.,4.8,0.,4.8
1979-07-21 12:17:34.800 ,6,0,1.,4.8,0.,4.8,0.,4.8,0.,4.8
1979-07-21 12:17:39.600 ,6,0,0.,4.8,0.,4.8,0.,4.8,0.,4.8
1979-07-21 12:17:44.400 ,6,0,0.,4.8,0.,4.8,0.,4.8,0.,4.8
1979-07-21 12:17:49.200 ,6,0,0.,4.8,0.,4.8,0.,4.8,0.,4.8
1979-07-21 12:17:54.000 ,6,0,0.,4.8,0.,4.8,0.,4.8,0.,4.8
1979-07-21 12:17:58.800 ,6,0,0.,4.8,0.,4.8,0.,4.8,0.,4.8
1979-07-21 12:18:03.600 ,6,0,0.,4.8,1.,4.8,1.,4.8,0.,4.8
1979-07-21 12:18:08.400 ,6,0,0.,4.8,0.,4.8,0.,4.8,0.,4.8
1979-07-21 12:18:13.200 ,6,0,0.,4.8,0.,4.8,0.,4.8,0.,4.8
1979-07-21 12:18:18.000 ,6,0,0.,4.8,0.,4.8,0.,4.8,0.,4.8
1979-07-21 12:18:22.800 ,7,0,0.,4.8,0.,4.8,0.,4.8,0.,4.8
1979-07-21 12:18:27.600 ,7,0,0.,4.8,1.,4.8,0.,4.8,0.,4.8
1979-07-21 12:18:32.400 ,7,0,0.,4.8,0.,4.8,0.,4.8,0.,4.8
1979-07-21 12:18:37.200 ,7,0,0.,4.8,0.,4.8,0.,4.8,0.,4.8
1979-07-21 12:18:42.000 ,7,0,0.,4.8,0.,4.8,0.,4.8,0.,4.8
1979-07-21 12:18:46.800 ,7,0,0.,4.8,0.,4.8,0.,4.8,0.,4.8
1979-07-21 12:18:51.600 ,7,0,0.,4.8,0.,4.8,0.,4.8,0.,4.8
1979-07-21 12:18:56.400 ,7,0,0.,4.8,0.,4.8,0.,4.8,0.,4.8
1979-07-21 12:19:01.200 ,7,0,0.,4.8,0.,4.8,0.,4.8,0.,4.8
1979-07-21 12:19:06.000 ,7,0,1.,4.8,0.,4.8,0.,4.8,0.,4.8
1979-07-21 12:19:10.800 ,3,1,0.,4.8,0.,4.8,0.,4.8,0.,4.8
1979-07-21 12:19:15.600 ,3,1,1.,4.8,0.,4.8,0.,4.8,0.,4.8
1979-07-21 12:19:20.400 ,3,1,0.,4.8,0.,4.8,0.,4.8,0.,4.8
1979-07-21 12:19:25.200 ,3,1,0.,4.8,0.,4.8,0.,4.8,0.,4.8
1979-07-21 12:19:30.000 ,3,1,0.,4.8,0.,4.8,0.,4.8,0.,4.8
1979-07-21 12:19:34.800 ,0,1,1.,4.8,0.,4.8,0.,4.8,0.,4.8
1979-07-21 12:19:39.600 ,0,1,1.,4.8,0.,4.8,0.,4.8,0.,4.8
1979-07-21 12:19:44.400 ,0,1,0.,4.8,0.,4.8,1.,4.8,0.,4.8
1979-07-21 12:19:49.200 ,0,1,0.,4.8,0.,4.8,0.,4.8,0.,4.8
1979-07-21 12:19:54.000 ,0,1,0.,4.8,0.,4.8,0.,4.8,0.,4.8
1979-07-21 12:19:58.800 ,4,1,0.,4.8,0.,4.8,0.,4.8,0.,4.8
1979-07-21 12:20:03.600 ,4,1,0.,4.8,0.,4.8,0.,4.8,0.,4.8
1979-07-21 12:20:08.400 ,4,1,0.,4.8,0.,4.8,0.,4.8,0.,4.8
1979-07-21 12:20:13.200 ,4,1,0.,4.8,0.,4.8,0.,4.8,0.,4.8
1979-07-21 12:20:18.000 ,4,1,0.,4.8,0.,4.8,0.,4.8,0.,4.8
1979-07-21 12:20:22.800 ,7,1,0.,4.8,0.,4.8,0.,4.8,2.,4.8
1979-07-21 12:20:27.600 ,7,1,0.,4.8,0.,4.8,1.,4.8,0.,4.8
1979-07-21 12:20:32.400 ,7,1,0.,4.8,0.,4.8,0.,4.8,0.,4.8
1979-07-21 12:20:37.200 ,7,1,0.,4.8,0.,4.8,0.,4.8,0.,4.8
1979-07-21 12:20:42.000 ,7,1,0.,4.8,0.,4.8,1.,4.8,0.,4.8
1979-07-21 12:20:46.800 ,3,1,0.,4.8,0.,4.8,0.,4.8,0.,4.8
1979-07-21 12:20:51.600 ,3,1,0.,4.8,0.,4.8,0.,4.8,0.,4.8
1979-07-21 12:20:56.400 ,3,1,0.,4.8,0.,4.8,0.,4.8,0.,4.8
1979-07-21 12:21:01.200 ,3,1,0.,4.8,0.,4.8,0.,4.8,1.,4.8
1979-07-21 12:21:06.000 ,3,1,0.,4.8,0.,4.8,1.,4.8,0.,4.8
1979-07-21 12:21:10.800 ,0,1,1.,4.8,0.,4.8,0.,4.8,0.,4.8
1979-07-21 12:21:15.600 ,0,1,0.,4.8,0.,4.8,0.,4.8,0.,4.8
1979-07-21 12:21:20.400 ,0,1,0.,4.8,0.,4.8,0.,4.8,0.,4.8
1979-07-21 12:21:25.200 ,0,1,0.,4.8,0.,4.8,0.,4.8,0.,4.8
1979-07-21 12:21:30.000 ,0,1,0.,4.8,0.,4.8,0.,4.8,0.,4.8
1979-07-21 12:21:34.800 ,4,1,0.,4.8,0.,4.8,0.,4.8,0.,4.8
1979-07-21 12:21:39.600 ,4,1,1.,4.8,0.,4.8,0.,4.8,0.,4.8
1979-07-21 12:21:44.400 ,4,1,0.,4.8,0.,4.8,0.,4.8,0.,4.8
1979-07-21 12:21:49.200 ,4,1,1.,4.8,0.,4.8,0.,4.8,0.,4.8
1979-07-21 12:21:54.000 ,4,1,0.,4.8,0.,4.8,0.,4.8,0.,4.8
1979-07-21 12:21:58.800 ,7,1,1.,4.8,0.,4.8,0.,4.8,0.,4.8
1979-07-21 12:22:03.600 ,7,1,0.,4.8,0.,4.8,0.,4.8,0.,4.8
1979-07-21 12:22:08.400 ,7,1,1.,4.8,0.,4.8,1.,4.8,0.,4.8
1979-07-21 12:22:13.200 ,7,1,0.,4.8,0.,4.8,0.,4.8,0.,4.8
1979-07-21 12:22:18.000 ,7,1,0.,4.8,0.,4.8,0.,4.8,0.,4.8
1979-07-21 12:22:22.800 ,3,1,2.,4.8,0.,4.8,0.,4.8,0.,4.8
1979-07-21 12:22:27.600 ,3,1,0.,4.8,0.,4.8,0.,4.8,0.,4.8
1979-07-21 12:22:32.400 ,3,1,1.,4.8,0.,4.8,0.,4.8,0.,4.8
1979-07-21 12:22:37.200 ,3,1,0.,4.8,0.,4.8,0.,4.8,0.,4.8
1979-07-21 12:22:42.000 ,3,1,0.,4.8,0.,4.8,0.,4.8,0.,4.8
1979-07-21 12:22:46.800 ,0,1,0.,4.8,0.,4.8,0.,4.8,0.,4.8
1979-07-21 12:22:51.600 ,0,1,1.,4.8,0.,4.8,0.,4.8,0.,4.8
1979-07-21 12:22:56.400 ,0,1,0.,4.8,0.,4.8,0.,4.8,0.,4.8
1979-07-21 12:23:01.200 ,0,1,0.,4.8,0.,4.8,0.,4.8,0.,4.8
1979-07-21 12:23:06.000 ,0,1,0.,4.8,0.,4.8,0.,4.8,0.,4.8
1979-07-21 12:23:10.800 ,4,1,0.,4.8,0.,4.8,0.,4.8,0.,4.8
1979-07-21 12:23:15.600 ,4,1,2.,4.8,0.,4.8,0.,4.8,0.,4.8
1979-07-21 12:23:20.400 ,4,1,1.,4.8,0.,4.8,0.,4.8,0.,4.8
1979-07-21 12:23:25.200 ,4,1,1.,4.8,0.,4.8,0.,4.8,0.,4.8
1979-07-21 12:23:30.000 ,4,1,0.,4.8,0.,4.8,0.,4.8,0.,4.8
1979-07-21 12:23:34.800 ,7,1,0.,4.8,0.,4.8,0.,4.8,0.,4.8
1979-07-21 12:23:39.600 ,7,1,0.,4.8,0.,4.8,1.,4.8,0.,4.8
1979-07-21 12:23:44.400 ,7,1,1.,4.8,0.,4.8,0.,4.8,0.,4.8
1979-07-21 12:23:49.200 ,7,1,2.,4.8,0.,4.8,0.,4.8,0.,4.8
1979-07-21 12:23:54.000 ,7,1,0.,4.8,0.,4.8,0.,4.8,0.,4.8
1979-07-21 12:23:58.800 ,3,1,2.,4.8,0.,4.8,0.,4.8,0.,4.8
1979-07-21 12:24:03.600 ,3,1,0.,4.8,0.,4.8,0.,4.8,0.,4.8
1979-07-21 12:24:08.400 ,3,1,0.,4.8,0.,4.8,0.,4.8,0.,4.8
1979-07-21 12:24:13.200 ,3,1,0.,4.8,0.,4.8,0.,4.8,0.,4.8
1979-07-21 12:24:18.000 ,3,1,1.,4.8,0.,4.8,0.,4.8,0.,4.8
1979-07-21 12:24:22.800 ,0,1,0.,4.8,0.,4.8,0.,4.8,0.,4.8
1979-07-21 12:24:27.600 ,0,1,0.,4.8,0.,4.8,0.,4.8,0.,4.8
1979-07-21 12:24:32.400 ,0,1,0.,4.8,0.,4.8,0.,4.8,0.,4.8
1979-07-21 12:24:37.200 ,0,1,0.,4.8,0.,4.8,0.,4.8,0.,4.8
1979-07-21 12:24:42.000 ,0,1,0.,4.8,0.,4.8,0.,4.8,0.,4.8
1979-07-21 12:24:46.800 ,4,1,0.,4.8,0.,4.8,0.,4.8,0.,4.8
1979-07-21 12:24:51.600 ,4,1,0.,4.8,0.,4.8,0.,4.8,0.,4.8
1979-07-21 12:24:56.400 ,4,1,0.,4.8,0.,4.8,0.,4.8,0.,4.8
1979-07-21 12:25:01.200 ,4,1,0.,4.8,1.,4.8,0.,4.8,0.,4.8
1979-07-21 12:25:06.000 ,4,1,1.,4.8,0.,4.8,0.,4.8,0.,4.8
1979-07-21 12:25:10.800 ,7,1,0.,4.8,0.,4.8,0.,4.8,0.,4.8
1979-07-21 12:25:15.600 ,7,1,0.,4.8,0.,4.8,0.,4.8,0.,4.8
1979-07-21 12:25:20.400 ,7,1,0.,4.8,0.,4.8,0.,4.8,0.,4.8
1979-07-21 12:25:25.200 ,7,1,1.,4.8,0.,4.8,1.,4.8,0.,4.8
1979-07-21 12:25:30.000 ,7,1,1.,4.8,1.,4.8,0.,4.8,0.,4.8
1979-07-21 12:25:34.800 ,3,1,0.,4.8,0.,4.8,0.,4.8,0.,4.8
1979-07-21 12:25:39.600 ,3,1,0.,4.8,0.,4.8,0.,4.8,0.,4.8
1979-07-21 12:25:44.400 ,3,1,0.,4.8,0.,4.8,0.,4.8,0.,4.8
1979-07-21 12:25:49.200 ,3,1,1.,4.8,0.,4.8,0.,4.8,0.,4.8
1979-07-21 12:25:54.000 ,3,1,1.,4.8,0.,4.8,0.,4.8,0.,4.8
1979-07-21 12:25:58.800 ,0,1,0.,4.8,0.,4.8,0.,4.8,0.,4.8
1979-07-21 12:26:03.600 ,0,1,0.,4.8,0.,4.8,0.,4.8,0.,4.8
1979-07-21 12:26:08.400 ,0,1,0.,4.8,0.,4.8,1.,4.8,0.,4.8
1979-07-21 12:26:13.200 ,0,1,1.,4.8,0.,4.8,0.,4.8,0.,4.8
1979-07-21 12:26:18.000 ,0,1,0.,4.8,0.,4.8,0.,4.8,0.,4.8
1979-07-21 12:26:22.800 ,4,1,0.,4.8,0.,4.8,0.,4.8,0.,4.8
1979-07-21 12:26:27.600 ,4,1,0.,4.8,0.,4.8,0.,4.8,0.,4.8
1979-07-21 12:26:32.400 ,4,1,0.,4.8,0.,4.8,0.,4.8,0.,4.8
1979-07-21 12:26:37.200 ,4,1,1.,4.8,0.,4.8,0.,4.8,0.,4.8
1979-07-21 12:26:42.000 ,4,1,0.,4.8,0.,4.8,1.,4.8,0.,4.8
1979-07-21 12:26:46.800 ,7,1,1.,4.8,0.,4.8,0.,4.8,0.,4.8
1979-07-21 12:26:51.600 ,7,1,2.,4.8,0.,4.8,0.,4.8,0.,4.8
1979-07-21 12:26:56.400 ,7,1,0.,4.8,0.,4.8,0.,4.8,0.,4.8
1979-07-21 12:27:01.200 ,7,1,0.,4.8,0.,4.8,0.,4.8,1.,4.8
1979-07-21 12:27:06.000 ,7,1,0.,4.8,0.,4.8,1.,4.8,0.,4.8
1979-07-21 12:27:10.800 ,3,1,1.,4.8,0.,4.8,0.,4.8,0.,4.8
1979-07-21 12:27:15.600 ,3,1,0.,4.8,0.,4.8,0.,4.8,0.,4.8
1979-07-21 12:27:20.400 ,3,1,0.,4.8,0.,4.8,0.,4.8,0.,4.8
1979-07-21 12:27:25.200 ,3,1,0.,4.8,0.,4.8,0.,4.8,0.,4.8
1979-07-21 12:27:30.000 ,3,1,0.,4.8,0.,4.8,0.,4.8,0.,4.8
1979-07-21 12:27:34.800 ,0,1,0.,4.8,0.,4.8,0.,4.8,0.,4.8
1979-07-21 12:27:39.600 ,0,1,2.,4.8,0.,4.8,0.,4.8,0.,4.8
1979-07-21 12:27:44.400 ,0,1,1.,4.8,0.,4.8,0.,4.8,0.,4.8
1979-07-21 12:27:49.200 ,0,1,0.,4.8,0.,4.8,0.,4.8,0.,4.8
1979-07-21 12:27:54.000 ,0,1,0.,4.8,0.,4.8,0.,4.8,0.,4.8
1979-07-21 12:27:58.800 ,4,1,0.,4.8,0.,4.8,0.,4.8,0.,4.8
1979-07-21 12:28:03.600 ,4,1,1.,4.8,0.,4.8,0.,4.8,0.,4.8
1979-07-21 12:28:08.400 ,4,1,0.,4.8,0.,4.8,0.,4.8,0.,4.8
1979-07-21 12:28:13.200 ,4,1,0.,4.8,0.,4.8,0.,4.8,0.,4.8
1979-07-21 12:28:18.000 ,4,1,0.,4.8,0.,4.8,0.,4.8,0.,4.8
1979-07-21 12:28:22.800 ,7,1,0.,4.8,0.,4.8,2.,4.8,0.,4.8
1979-07-21 12:28:27.600 ,7,1,0.,4.8,0.,4.8,0.,4.8,0.,4.8
1979-07-21 12:28:32.400 ,7,1,0.,4.8,0.,4.8,0.,4.8,0.,4.8
1979-07-21 12:28:37.200 ,7,1,0.,4.8,0.,4.8,0.,4.8,0.,4.8
1979-07-21 12:28:42.000 ,7,1,0.,4.8,0.,4.8,0.,4.8,0.,4.8
1979-07-21 12:28:46.800 ,3,1,0.,4.8,0.,4.8,0.,4.8,0.,4.8
1979-07-21 12:28:51.600 ,3,1,0.,4.8,0.,4.8,0.,4.8,0.,4.8
1979-07-21 12:28:56.400 ,3,1,0.,4.8,0.,4.8,0.,4.8,0.,4.8
1979-07-21 12:29:01.200 ,3,1,0.,4.8,0.,4.8,0.,4.8,1.,4.8
1979-07-21 12:29:06.000 ,3,1,0.,4.8,0.,4.8,1.,4.8,0.,4.8
1979-07-21 12:29:10.800 ,0,1,0.,4.8,0.,4.8,0.,4.8,0.,4.8
1979-07-21 12:29:15.600 ,0,1,0.,4.8,0.,4.8,0.,4.8,0.,4.8
1979-07-21 12:29:20.400 ,0,1,1.,4.8,0.,4.8,0.,4.8,0.,4.8
1979-07-21 12:29:25.200 ,0,1,0.,4.8,0.,4.8,1.,4.8,0.,4.8
1979-07-21 12:29:30.000 ,0,1,0.,4.8,0.,4.8,0.,4.8,0.,4.8
1979-07-21 12:29:34.800 ,0,0,1.,4.8,0.,4.8,0.,4.8,0.,4.8
1979-07-21 12:29:39.600 ,0,0,0.,4.8,0.,4.8,0.,4.8,0.,4.8
1979-07-21 12:29:44.400 ,0,0,1.,4.8,0.,4.8,1.,4.8,1.,4.8
1979-07-21 12:29:49.200 ,0,0,0.,4.8,0.,4.8,0.,4.8,0.,4.8
1979-07-21 12:29:54.000 ,0,0,0.,4.8,0.,4.8,0.,4.8,0.,4.8
1979-07-21 12:29:58.800 ,0,0,0.,4.8,0.,4.8,0.,4.8,0.,4.8
1979-07-21 12:30:03.600 ,0,0,0.,4.8,0.,4.8,0.,4.8,0.,4.8
1979-07-21 12:30:08.400 ,0,0,0.,4.8,0.,4.8,0.,4.8,0.,4.8
1979-07-21 12:30:13.200 ,0,0,1.,4.8,0.,4.8,0.,4.8,0.,4.8
1979-07-21 12:30:18.000 ,0,0,0.,4.8,0.,4.8,0.,4.8,0.,4.8
1979-07-21 12:30:22.800 ,5,0,0.,4.8,0.,4.8,1.,4.8,0.,4.8
1979-07-21 12:30:27.600 ,5,0,0.,4.8,0.,4.8,0.,4.8,1.,4.8
1979-07-21 12:30:32.400 ,5,0,0.,4.8,0.,4.8,0.,4.8,0.,4.8
1979-07-21 12:30:37.200 ,5,0,1.,4.8,0.,4.8,0.,4.8,0.,4.8
1979-07-21 12:30:42.000 ,5,0,0.,4.8,0.,4.8,0.,4.8,0.,4.8
1979-07-21 12:30:46.800 ,5,0,0.,4.8,0.,4.8,1.,4.8,0.,4.8
1979-07-21 12:30:51.600 ,5,0,0.,4.8,0.,4.8,1.,4.8,0.,4.8
1979-07-21 12:30:56.400 ,5,0,1.,4.8,0.,4.8,0.,4.8,0.,4.8
1979-07-21 12:31:01.200 ,5,0,0.,4.8,0.,4.8,0.,4.8,0.,4.8
1979-07-21 12:31:06.000 ,5,0,1.,4.8,0.,4.8,0.,4.8,0.,4.8
1979-07-21 12:31:10.800 ,4,0,2.,4.8,0.,4.8,1.,4.8,0.,4.8
1979-07-21 12:31:15.600 ,4,0,1.,4.8,0.,4.8,0.,4.8,0.,4.8
1979-07-21 12:31:20.400 ,4,0,0.,4.8,0.,4.8,0.,4.8,0.,4.8
1979-07-21 12:31:25.200 ,4,0,0.,4.8,0.,4.8,0.,4.8,0.,4.8
1979-07-21 12:31:30.000 ,4,0,0.,4.8,0.,4.8,0.,4.8,0.,4.8
1979-07-21 12:31:34.800 ,4,0,0.,4.8,0.,4.8,0.,4.8,0.,4.8
1979-07-21 12:31:39.600 ,4,0,0.,4.8,0.,4.8,1.,4.8,0.,4.8
1979-07-21 12:31:44.400 ,4,0,0.,4.8,0.,4.8,0.,4.8,0.,4.8
1979-07-21 12:31:49.200 ,4,0,2.,4.8,0.,4.8,0.,4.8,0.,4.8
1979-07-21 12:31:54.000 ,4,0,2.,4.8,0.,4.8,0.,4.8,0.,4.8
1979-07-21 12:31:58.800 ,3,0,1.,4.8,0.,4.8,1.,4.8,0.,4.8
1979-07-21 12:32:03.600 ,3,0,1.,4.8,0.,4.8,1.,4.8,0.,4.8
1979-07-21 12:32:08.400 ,3,0,0.,4.8,0.,4.8,0.,4.8,0.,4.8
1979-07-21 12:32:13.200 ,3,0,0.,4.8,0.,4.8,0.,4.8,0.,4.8
1979-07-21 12:32:18.000 ,3,0,0.,4.8,0.,4.8,0.,4.8,0.,4.8
1979-07-21 12:32:22.800 ,3,0,1.,4.8,0.,4.8,0.,4.8,0.,4.8
1979-07-21 12:32:27.600 ,3,0,0.,4.8,0.,4.8,0.,4.8,0.,4.8
1979-07-21 12:32:32.400 ,3,0,0.,4.8,0.,4.8,0.,4.8,0.,4.8
1979-07-21 12:32:37.200 ,3,0,0.,4.8,0.,4.8,0.,4.8,0.,4.8
1979-07-21 12:32:42.000 ,3,0,1.,4.8,0.,4.8,0.,4.8,0.,4.8
1979-07-21 12:32:46.800 ,2,0,1.,4.8,0.,4.8,0.,4.8,0.,4.8
1979-07-21 12:32:51.600 ,2,0,0.,4.8,0.,4.8,0.,4.8,0.,4.8
1979-07-21 12:32:56.400 ,2,0,0.,4.8,0.,4.8,0.,4.8,0.,4.8
1979-07-21 12:33:01.200 ,2,0,0.,4.8,0.,4.8,0.,4.8,0.,4.8
1979-07-21 12:33:06.000 ,2,0,0.,4.8,0.,4.8,0.,4.8,0.,4.8
1979-07-21 12:33:10.800 ,2,0,0.,4.8,0.,4.8,0.,4.8,0.,4.8
1979-07-21 12:33:15.600 ,2,0,0.,4.8,0.,4.8,0.,4.8,0.,4.8